| time (UTC) | temp F | wind direction | speed MPH | gust MPH | rain 1hr in | rain 24hr in | rain mn in | humidity % | barometer mb |
| 20260509123504 | 63 | 311 | 7.0 | 16.0 | 0.00 | 0.00 | 0.00 | 50 | 1016.1 |
| 20260509123004 | 63 | 302 | 10.0 | 13.0 | 0.00 | 0.00 | 0.00 | 50 | 1016.1 |
| 20260509122505 | 64 | 306 | 9.0 | 10.0 | 0.00 | 0.00 | 0.00 | 50 | 1016.1 |
| 20260509122004 | 64 | 314 | 6.0 | 11.0 | 0.00 | 0.00 | 0.00 | 50 | 1016.1 |
| 20260509120503 | 64 | 300 | 6.0 | 13.0 | 0.00 | 0.00 | 0.00 | 50 | 1015.1 |
| 20260509115004 | 64 | 312 | 6.0 | 13.0 | 0.00 | 0.00 | 0.00 | 50 | 1015.1 |
| 20260509114504 | 64 | 317 | 8.0 | 12.0 | 0.00 | 0.00 | 0.00 | 50 | 1015.1 |
| 20260509114004 | 64 | 321 | 6.0 | 12.0 | 0.00 | 0.00 | 0.00 | 50 | 1015.1 |
| 20260509113504 | 64 | 322 | 11.0 | 12.0 | 0.00 | 0.00 | 0.00 | 50 | 1015.1 |
| 20260509113004 | 65 | 326 | 5.0 | 11.0 | 0.00 | 0.00 | 0.00 | 50 | 1015.1 |
| 20260509112504 | 65 | 311 | 6.0 | 15.0 | 0.00 | 0.00 | 0.00 | 50 | 1015.1 |
| 20260509112004 | 65 | 299 | 11.0 | 15.0 | 0.00 | 0.00 | 0.00 | 50 | 1015.1 |
| 20260509111506 | 65 | 299 | 9.0 | 11.0 | 0.00 | 0.00 | 0.00 | 50 | 1014.1 |
| 20260509111005 | 65 | 304 | 11.0 | 13.0 | 0.00 | 0.00 | 0.00 | 50 | 1014.1 |
| 20260509110504 | 65 | 305 | 10.0 | 13.0 | 0.00 | 0.00 | 0.00 | 50 | 1014.1 |
| 20260509110004 | 65 | 305 | 8.0 | 13.0 | 0.00 | 0.00 | 0.00 | 50 | 1014.1 |
| 20260509105505 | 65 | 297 | 6.0 | 6.0 | 0.00 | 0.00 | 0.00 | 50 | 1014.1 |
| 20260509105004 | 65 | 302 | 4.0 | 11.0 | 0.00 | 0.00 | 0.00 | 50 | 1014.1 |
| 20260509104504 | 66 | 295 | 6.0 | 11.0 | 0.00 | 0.00 | 0.00 | 50 | 1013.1 |
| 20260509104004 | 66 | 301 | 10.0 | 11.0 | 0.00 | 0.00 | 0.00 | 50 | 1013.1 |
| 20260509103504 | 66 | 320 | 8.0 | 10.0 | 0.00 | 0.00 | 0.00 | 50 | 1013.1 |
| 20260509103004 | 66 | 313 | 7.0 | 9.0 | 0.00 | 0.00 | 0.00 | 50 | 1014.1 |
| 20260509102504 | 66 | 305 | 6.0 | 10.0 | 0.00 | 0.00 | 0.00 | 50 | 1014.1 |
| 20260509101504 | 67 | 310 | 6.0 | 9.0 | 0.00 | 0.00 | 0.00 | 50 | 1014.1 |
| 20260509101004 | 67 | 306 | 4.0 | 13.0 | 0.00 | 0.00 | 0.00 | 50 | 1014.1 |
| 20260509100503 | 67 | 300 | 7.0 | 13.0 | 0.00 | 0.00 | 0.00 | 50 | 1014.1 |
| 20260509100005 | 67 | 300 | 10.0 | 13.0 | 0.00 | 0.00 | 0.00 | 50 | 1013.1 |
| 20260509095503 | 67 | 304 | 7.0 | 9.0 | 0.00 | 0.00 | 0.00 | 50 | 1013.1 |
| 20260509095004 | 68 | 309 | 2.0 | 9.0 | 0.00 | 0.00 | 0.00 | 50 | 1013.1 |
| 20260509094504 | 68 | 311 | 3.0 | 13.0 | 0.00 | 0.00 | 0.00 | 50 | 1012.1 |
| 20260509093504 | 69 | 304 | 9.0 | 13.0 | 0.00 | 0.00 | 0.00 | 50 | 1012.1 |
| 20260509092004 | 69 | 299 | 8.0 | 14.0 | 0.00 | 0.00 | 0.00 | 50 | 1012.1 |
| 20260509091504 | 69 | 306 | 8.0 | 15.0 | 0.00 | 0.00 | 0.00 | 50 | 1012.1 |
| 20260509091004 | 70 | 306 | 11.0 | 15.0 | 0.00 | 0.00 | 0.00 | 50 | 1012.1 |
| 20260509090504 | 70 | 302 | 9.0 | 18.0 | 0.00 | 0.00 | 0.00 | 50 | 1012.1 |
| 20260509090004 | 70 | 305 | 14.0 | 18.0 | 0.00 | 0.00 | 0.00 | 50 | 1011.1 |
| 20260509085504 | 71 | 304 | 12.0 | 15.0 | 0.00 | 0.00 | 0.00 | 50 | 1011.1 |
| 20260509085004 | 71 | 305 | 7.0 | 16.0 | 0.00 | 0.00 | 0.00 | 50 | 1011.1 |
| 20260509084504 | 71 | 309 | 11.0 | 16.0 | 0.00 | 0.00 | 0.00 | 50 | 1010.1 |
| 20260509084004 | 71 | 309 | 10.0 | 13.0 | 0.00 | 0.00 | 0.00 | 50 | 1010.1 |
| 20260509083503 | 72 | 310 | 7.0 | 11.0 | 0.00 | 0.00 | 0.00 | 50 | 1010.1 |
| 20260509083004 | 72 | 328 | 4.0 | 15.0 | 0.00 | 0.00 | 0.00 | 50 | 1010.1 |
| 20260509082504 | 72 | 327 | 5.0 | 20.0 | 0.00 | 0.00 | 0.00 | 50 | 1010.1 |
| 20260509082004 | 72 | 324 | 9.0 | 20.0 | 0.00 | 0.00 | 0.00 | 50 | 1010.1 |
| 20260509081504 | 72 | 326 | 15.0 | 18.0 | 0.00 | 0.00 | 0.00 | 50 | 1010.1 |
| 20260509081004 | 72 | 332 | 13.0 | 23.0 | 0.00 | 0.00 | 0.00 | 50 | 1010.1 |
| 20260509080505 | 73 | 327 | 16.0 | 23.0 | 0.00 | 0.00 | 0.00 | 50 | 1010.1 |
| 20260509080004 | 73 | 310 | 12.0 | 26.0 | 0.00 | 0.00 | 0.00 | 50 | 1010.1 |
| 20260509075503 | 73 | 309 | 10.0 | 26.0 | 0.00 | 0.00 | 0.00 | 50 | 1010.1 |
| 20260509075004 | 74 | 320 | 17.0 | 22.0 | 0.00 | 0.00 | 0.00 | 50 | 1010.1 |
| 20260509074505 | 74 | 323 | 17.0 | 25.0 | 0.00 | 0.00 | 0.00 | 50 | 1010.1 |
| 20260509074004 | 74 | 321 | 14.0 | 25.0 | 0.00 | 0.00 | 0.00 | 50 | 1010.1 |
| 20260509073504 | 74 | 316 | 17.0 | 22.0 | 0.00 | 0.00 | 0.00 | 50 | 1010.1 |
| 20260509073004 | 74 | 313 | 14.0 | 21.0 | 0.00 | 0.00 | 0.00 | 50 | 1010.1 |
| 20260509072504 | 74 | 311 | 15.0 | 19.0 | 0.00 | 0.00 | 0.00 | 50 | 1010.1 |
| 20260509072003 | 74 | 312 | 6.0 | 23.0 | 0.00 | 0.00 | 0.00 | 50 | 1010.1 |
| 20260509071504 | 74 | 310 | 13.0 | 23.0 | 0.00 | 0.00 | 0.00 | 50 | 1010.1 |
| 20260509071004 | 74 | 319 | 11.0 | 23.0 | 0.00 | 0.00 | 0.00 | 50 | 1010.1 |
| 20260509070504 | 74 | 318 | 9.0 | 23.0 | 0.00 | 0.00 | 0.00 | 50 | 1010.1 |
| 20260509070004 | 74 | 304 | 10.0 | 17.0 | 0.00 | 0.00 | 0.00 | 50 | 1010.1 |
| 20260509065504 | 74 | 311 | 9.0 | 18.0 | 0.00 | 0.00 | 0.00 | 50 | 1010.1 |
| 20260509065003 | 74 | 319 | 9.0 | 22.0 | 0.00 | 0.00 | 0.00 | 50 | 1010.1 |
| 20260509064504 | 74 | 316 | 13.0 | 22.0 | 0.00 | 0.00 | 0.00 | 50 | 1010.1 |
| 20260509064004 | 74 | 312 | 10.0 | 21.0 | 0.00 | 0.00 | 0.00 | 50 | 1010.1 |
| 20260509063504 | 75 | 318 | 13.0 | 21.0 | 0.00 | 0.00 | 0.00 | 50 | 1010.1 |
| 20260509063004 | 75 | 323 | 11.0 | 24.0 | 0.00 | 0.00 | 0.00 | 50 | 1010.1 |
| 20260509062504 | 75 | 318 | 13.0 | 24.0 | 0.00 | 0.00 | 0.00 | 50 | 1010.1 |
| 20260509062004 | 75 | 330 | 15.0 | 18.0 | 0.00 | 0.00 | 0.00 | 50 | 1010.1 |
| 20260509061504 | 75 | 328 | 12.0 | 18.0 | 0.00 | 0.00 | 0.00 | 50 | 1010.1 |
| 20260509061004 | 75 | 312 | 11.0 | 18.0 | 0.00 | 0.00 | 0.00 | 50 | 1010.1 |
| 20260509060504 | 75 | 316 | 13.0 | 23.0 | 0.00 | 0.00 | 0.00 | 50 | 1010.1 |
| 20260509060005 | 75 | 317 | 13.0 | 24.0 | 0.00 | 0.00 | 0.00 | 50 | 1010.1 |
| 20260509055504 | 75 | 318 | 17.0 | 24.0 | 0.00 | 0.00 | 0.00 | 50 | 1010.1 |
| 20260509054504 | 75 | 328 | 18.0 | 30.0 | 0.00 | 0.00 | 0.00 | 50 | 1010.1 |
| 20260509054004 | 75 | 326 | 21.0 | 26.0 | 0.00 | 0.00 | 0.00 | 50 | 1010.1 |
| 20260509053003 | 75 | 327 | 9.0 | 21.0 | 0.00 | 0.00 | 0.00 | 50 | 1010.1 |
| 20260509052504 | 75 | 316 | 13.0 | 24.0 | 0.00 | 0.00 | 0.00 | 50 | 1010.1 |
| 20260509052004 | 75 | 307 | 15.0 | 28.0 | 0.00 | 0.00 | 0.00 | 50 | 1010.1 |
| 20260509051504 | 75 | 310 | 16.0 | 28.0 | 0.00 | 0.00 | 0.00 | 50 | 1010.1 |
| 20260509051004 | 75 | 310 | 13.0 | 21.0 | 0.00 | 0.00 | 0.00 | 50 | 1010.1 |
| 20260509050504 | 75 | 323 | 16.0 | 21.0 | 0.00 | 0.00 | 0.00 | 50 | 1010.1 |
| 20260509050004 | 75 | 330 | 10.0 | 25.0 | 0.00 | 0.00 | 0.00 | 50 | 1010.1 |
| 20260509045504 | 75 | 326 | 11.0 | 25.0 | 0.00 | 0.00 | 0.00 | 50 | 1010.1 |
| 20260509045004 | 75 | 320 | 11.0 | 22.0 | 0.00 | 0.00 | 0.00 | 50 | 1010.1 |
| 20260509044504 | 74 | 312 | 10.0 | 28.0 | 0.00 | 0.00 | 0.00 | 50 | 1011.1 |
| 20260509044003 | 74 | 305 | 20.0 | 28.0 | 0.00 | 0.00 | 0.00 | 50 | 1011.1 |
| 20260509043504 | 74 | 304 | 16.0 | 30.0 | 0.00 | 0.00 | 0.00 | 50 | 1011.1 |
| 20260509043004 | 75 | 323 | 21.0 | 30.0 | 0.00 | 0.00 | 0.00 | 50 | 1011.1 |
| 20260509042504 | 74 | 326 | 10.0 | 28.0 | 0.00 | 0.00 | 0.00 | 50 | 1011.1 |
| 20260509042004 | 74 | 315 | 21.0 | 28.0 | 0.00 | 0.00 | 0.00 | 50 | 1011.1 |
| 20260509041504 | 75 | 314 | 15.0 | 24.0 | 0.00 | 0.00 | 0.00 | 50 | 1011.1 |
| 20260509041003 | 74 | 323 | 10.0 | 23.0 | 0.00 | 0.00 | 0.00 | 50 | 1011.1 |
| 20260509040504 | 74 | 323 | 13.0 | 28.0 | 0.00 | 0.00 | 0.00 | 50 | 1011.1 |
| 20260509040005 | 74 | 319 | 18.0 | 28.0 | 0.00 | 0.00 | 0.00 | 50 | 1011.1 |
| 20260509035004 | 74 | 322 | 24.0 | 33.0 | 0.00 | 0.00 | 0.00 | 50 | 1011.1 |
| 20260509034004 | 74 | 317 | 21.0 | 34.0 | 0.00 | 0.00 | 0.00 | 50 | 1011.1 |
| 20260509033504 | 74 | 320 | 21.0 | 32.0 | 0.00 | 0.00 | 0.00 | 50 | 1011.1 |
| 20260509033004 | 74 | 319 | 20.0 | 35.0 | 0.00 | 0.00 | 0.00 | 50 | 1011.1 |
| 20260509032503 | 74 | 319 | 26.0 | 35.0 | 0.00 | 0.00 | 0.00 | 50 | 1011.1 |
| 20260509031504 | 74 | 325 | 17.0 | 29.0 | 0.00 | 0.00 | 0.00 | 50 | 1011.1 |
| 20260509031004 | 74 | 332 | 19.0 | 30.0 | 0.00 | 0.00 | 0.00 | 50 | 1011.1 |
| 20260509030503 | 74 | 334 | 21.0 | 30.0 | 0.00 | 0.00 | 0.00 | 50 | 1011.1 |
| 20260509030004 | 74 | 324 | 15.0 | 30.0 | 0.00 | 0.00 | 0.00 | 50 | 1011.1 |
| 20260509025503 | 74 | 311 | 19.0 | 28.0 | 0.00 | 0.00 | 0.00 | 50 | 1011.1 |
| 20260509024503 | 74 | 318 | 20.0 | 31.0 | 0.00 | 0.00 | 0.00 | 50 | 1011.1 |
| 20260509022504 | 72 | 325 | 14.0 | 27.0 | 0.00 | 0.00 | 0.00 | 50 | 1011.1 |
| 20260509022004 | 72 | 332 | 15.0 | 27.0 | 0.00 | 0.00 | 0.00 | 50 | 1011.1 |
| 20260509021504 | 72 | 319 | 17.0 | 35.0 | 0.00 | 0.00 | 0.00 | 50 | 1011.1 |
| 20260509021004 | 71 | 309 | 19.0 | 35.0 | 0.00 | 0.00 | 0.00 | 50 | 1011.1 |
| 20260509020504 | 72 | 316 | 17.0 | 30.0 | 0.00 | 0.00 | 0.00 | 50 | 1011.1 |
| 20260509020004 | 72 | 318 | 24.0 | 30.0 | 0.00 | 0.00 | 0.00 | 50 | 1011.1 |
| 20260509015503 | 72 | 316 | 23.0 | 35.0 | 0.00 | 0.00 | 0.00 | 50 | 1011.1 |
| 20260509014504 | 72 | 312 | 20.0 | 30.0 | 0.00 | 0.00 | 0.00 | 50 | 1011.1 |
| 20260509014004 | 71 | 309 | 24.0 | 42.0 | 0.00 | 0.00 | 0.00 | 50 | 1011.1 |
| 20260509013503 | 71 | 310 | 20.0 | 42.0 | 0.00 | 0.00 | 0.00 | 50 | 1011.1 |
| 20260509013004 | 71 | 308 | 18.0 | 37.0 | 0.00 | 0.00 | 0.00 | 50 | 1011.1 |
| 20260509012504 | 71 | 312 | 21.0 | 33.0 | 0.00 | 0.00 | 0.00 | 50 | 1011.1 |
| 20260509012005 | 71 | 319 | 15.0 | 37.0 | 0.00 | 0.00 | 0.00 | 50 | 1011.1 |
| 20260509011504 | 71 | 325 | 22.0 | 37.0 | 0.00 | 0.00 | 0.00 | 50 | 1011.1 |
| 20260509011004 | 71 | 325 | 21.0 | 33.0 | 0.00 | 0.00 | 0.00 | 50 | 1011.1 |
| 20260509010504 | 70 | 314 | 17.0 | 33.0 | 0.00 | 0.00 | 0.00 | 50 | 1011.1 |
| 20260509010005 | 70 | 312 | 22.0 | 36.0 | 0.00 | 0.00 | 0.00 | 50 | 1011.1 |
| 20260509005504 | 70 | 314 | 21.0 | 36.0 | 0.00 | 0.00 | 0.00 | 50 | 1011.1 |
| 20260509005005 | 70 | 317 | 26.0 | 28.0 | 0.00 | 0.00 | 0.00 | 50 | 1011.1 |
| 20260509004503 | 70 | 316 | 15.0 | 33.0 | 0.00 | 0.00 | 0.00 | 50 | 1012.1 |
| 20260509004003 | 69 | 312 | 21.0 | 40.0 | 0.00 | 0.00 | 0.00 | 50 | 1012.1 |
| 20260509003503 | 69 | 308 | 33.0 | 40.0 | 0.00 | 0.00 | 0.00 | 50 | 1012.1 |
| 20260509003004 | 69 | 305 | 23.0 | 32.0 | 0.00 | 0.00 | 0.00 | 50 | 1011.1 |
| 20260509002504 | 69 | 311 | 23.0 | 28.0 | 0.00 | 0.00 | 0.00 | 50 | 1011.1 |
| 20260509002004 | 68 | 313 | 21.0 | 28.0 | 0.00 | 0.00 | 0.00 | 50 | 1011.1 |
| 20260509001504 | 67 | 315 | 16.0 | 28.0 | 0.00 | 0.00 | 0.00 | 50 | 1012.1 |
| 20260509001004 | 67 | 317 | 17.0 | 28.0 | 0.00 | 0.00 | 0.00 | 50 | 1012.1 |
| 20260509000504 | 66 | 313 | 18.0 | 29.0 | 0.00 | 0.00 | 0.00 | 50 | 1012.1 |
| 20260509000004 | 66 | 314 | 22.0 | 29.0 | 0.00 | 0.00 | 0.00 | 50 | 1012.1 |
| 20260508235503 | 65 | 311 | 15.0 | 32.0 | 0.00 | 0.00 | 0.00 | 50 | 1012.1 |
| 20260508235005 | 65 | 311 | 19.0 | 32.0 | 0.00 | 0.00 | 0.00 | 50 | 1012.1 |
| 20260508234503 | 64 | 309 | 21.0 | 30.0 | 0.00 | 0.00 | 0.00 | 50 | 1013.1 |
| 20260508234004 | 64 | 310 | 23.0 | 30.0 | 0.00 | 0.00 | 0.00 | 50 | 1013.1 |
| 20260508233504 | 64 | 314 | 19.0 | 31.0 | 0.00 | 0.00 | 0.00 | 50 | 1013.1 |
| 20260508232504 | 63 | 308 | 19.0 | 30.0 | 0.00 | 0.00 | 0.00 | 50 | 1012.1 |
| 20260508232003 | 63 | 310 | 17.0 | 32.0 | 0.00 | 0.00 | 0.00 | 50 | 1012.1 |
| 20260508231504 | 63 | 315 | 20.0 | 32.0 | 0.00 | 0.00 | 0.00 | 50 | 1011.1 |
| 20260508231004 | 63 | 321 | 18.0 | 30.0 | 0.00 | 0.00 | 0.00 | 50 | 1011.1 |
| 20260508230504 | 63 | 321 | 26.0 | 33.0 | 0.00 | 0.00 | 0.00 | 50 | 1011.1 |
| 20260508225504 | 62 | 318 | 18.0 | 36.0 | 0.00 | 0.00 | 0.00 | 50 | 1011.1 |
| 20260508225004 | 62 | 312 | 17.0 | 36.0 | 0.00 | 0.00 | 0.00 | 50 | 1011.1 |
| 20260508224503 | 62 | 310 | 16.0 | 32.0 | 0.00 | 0.00 | 0.00 | 50 | 1011.1 |
| 20260508224004 | 62 | 313 | 21.0 | 37.0 | 0.00 | 0.00 | 0.00 | 50 | 1011.1 |
| 20260508223503 | 62 | 317 | 24.0 | 37.0 | 0.00 | 0.00 | 0.00 | 50 | 1011.1 |
| 20260508223004 | 62 | 320 | 18.0 | 26.0 | 0.00 | 0.00 | 0.00 | 50 | 1011.1 |
| 20260508222504 | 62 | 319 | 19.0 | 25.0 | 0.00 | 0.00 | 0.00 | 50 | 1011.1 |
| 20260508222005 | 62 | 319 | 15.0 | 24.0 | 0.00 | 0.00 | 0.00 | 50 | 1011.1 |
| 20260508221503 | 62 | 327 | 19.0 | 27.0 | 0.00 | 0.00 | 0.00 | 50 | 1010.1 |
| 20260508221005 | 63 | 319 | 16.0 | 27.0 | 0.00 | 0.00 | 0.00 | 50 | 1010.1 |
| 20260508220504 | 63 | 312 | 21.0 | 27.0 | 0.00 | 0.00 | 0.00 | 50 | 1010.1 |
| 20260508215004 | 62 | 324 | 15.0 | 29.0 | 0.00 | 0.00 | 0.00 | 50 | 1010.1 |
| 20260508214504 | 62 | 324 | 14.0 | 29.0 | 0.00 | 0.00 | 0.00 | 50 | 1011.1 |
| 20260508214004 | 61 | 315 | 15.0 | 25.0 | 0.00 | 0.00 | 0.00 | 50 | 1011.1 |
| 20260508213504 | 61 | 306 | 17.0 | 27.0 | 0.00 | 0.00 | 0.00 | 50 | 1011.1 |
| 20260508213004 | 60 | 311 | 17.0 | 27.0 | 0.00 | 0.00 | 0.00 | 50 | 1013.1 |
| 20260508212505 | 60 | 321 | 14.0 | 26.0 | 0.00 | 0.00 | 0.00 | 50 | 1013.1 |
| 20260508212004 | 60 | 321 | 14.0 | 19.0 | 0.00 | 0.00 | 0.00 | 50 | 1013.1 |
| 20260508211504 | 60 | 311 | 12.0 | 19.0 | 0.00 | 0.00 | 0.00 | 50 | 1012.1 |
| 20260508210504 | 60 | 309 | 16.0 | 24.0 | 0.00 | 0.00 | 0.00 | 50 | 1012.1 |
| 20260508210004 | 60 | 315 | 11.0 | 19.0 | 0.00 | 0.00 | 0.00 | 50 | 1012.1 |
| 20260508205504 | 60 | 311 | 6.0 | 19.0 | 0.00 | 0.00 | 0.00 | 50 | 1012.1 |
| 20260508205004 | 60 | 312 | 9.0 | 19.0 | 0.00 | 0.00 | 0.00 | 50 | 1012.1 |
| 20260508204505 | 59 | 311 | 8.0 | 14.0 | 0.00 | 0.00 | 0.00 | 50 | 1012.1 |
| 20260508204004 | 59 | 310 | 9.0 | 14.0 | 0.00 | 0.00 | 0.00 | 50 | 1012.1 |
| 20260508203504 | 58 | 309 | 11.0 | 17.0 | 0.00 | 0.00 | 0.00 | 50 | 1012.1 |
| 20260508202004 | 57 | 314 | 9.0 | 17.0 | 0.00 | 0.00 | 0.00 | 50 | 1012.1 |
| 20260508201504 | 57 | 313 | 11.0 | 18.0 | 0.00 | 0.00 | 0.00 | 50 | 1013.1 |
| 20260508201004 | 57 | 315 | 10.0 | 18.0 | 0.00 | 0.00 | 0.00 | 50 | 1013.1 |
| 20260508200504 | 57 | 322 | 9.0 | 18.0 | 0.00 | 0.00 | 0.00 | 50 | 1013.1 |
| 20260508200004 | 57 | 317 | 11.0 | 18.0 | 0.00 | 0.00 | 0.00 | 50 | 1012.1 |
| 20260508195504 | 58 | 305 | 11.0 | 18.0 | 0.00 | 0.00 | 0.00 | 50 | 1012.1 |
| 20260508195004 | 58 | 312 | 11.0 | 15.0 | 0.00 | 0.00 | 0.00 | 50 | 1012.1 |
| 20260508194504 | 58 | 318 | 11.0 | 17.0 | 0.00 | 0.00 | 0.00 | 50 | 1012.1 |
| 20260508194004 | 58 | 313 | 11.0 | 22.0 | 0.00 | 0.00 | 0.00 | 50 | 1012.1 |
| 20260508193504 | 58 | 311 | 18.0 | 26.0 | 0.00 | 0.00 | 0.00 | 50 | 1012.1 |
| 20260508192504 | 58 | 318 | 11.0 | 22.0 | 0.00 | 0.00 | 0.00 | 50 | 1011.1 |
| 20260508192003 | 58 | 311 | 10.0 | 22.0 | 0.00 | 0.00 | 0.00 | 50 | 1011.1 |
| 20260508191003 | 58 | 316 | 16.0 | 26.0 | 0.00 | 0.00 | 0.00 | 50 | 1011.1 |
| 20260508190504 | 58 | 322 | 17.0 | 21.0 | 0.00 | 0.00 | 0.00 | 50 | 1011.1 |
| 20260508190003 | 58 | 323 | 16.0 | 19.0 | 0.00 | 0.00 | 0.00 | 50 | 1011.1 |
| 20260508185504 | 58 | 323 | 13.0 | 24.0 | 0.00 | 0.00 | 0.00 | 50 | 1011.1 |
| 20260508184504 | 58 | 315 | 10.0 | 19.0 | 0.00 | 0.00 | 0.00 | 50 | 1011.1 |
| 20260508184004 | 59 | 315 | 17.0 | 21.0 | 0.00 | 0.00 | 0.00 | 50 | 1011.1 |
| 20260508183504 | 59 | 314 | 11.0 | 22.0 | 0.00 | 0.00 | 0.00 | 50 | 1011.1 |
| 20260508183004 | 59 | 312 | 12.0 | 22.0 | 0.00 | 0.00 | 0.00 | 50 | 1011.1 |
| 20260508182004 | 59 | 316 | 13.0 | 25.0 | 0.00 | 0.00 | 0.00 | 50 | 1011.1 |
| 20260508181504 | 59 | 311 | 13.0 | 24.0 | 0.00 | 0.00 | 0.00 | 50 | 1011.1 |
| 20260508180504 | 59 | 302 | 14.0 | 24.0 | 0.00 | 0.00 | 0.00 | 50 | 1011.1 |
| 20260508180004 | 59 | 308 | 10.0 | 25.0 | 0.00 | 0.00 | 0.00 | 50 | 1010.1 |
| 20260508175503 | 59 | 304 | 20.0 | 25.0 | 0.00 | 0.00 | 0.00 | 50 | 1010.1 |
| 20260508175004 | 58 | 306 | 17.0 | 25.0 | 0.00 | 0.00 | 0.00 | 50 | 1010.1 |
| 20260508174504 | 58 | 309 | 11.0 | 23.0 | 0.00 | 0.00 | 0.00 | 50 | 1009.1 |
| 20260508174004 | 58 | 304 | 18.0 | 17.0 | 0.00 | 0.00 | 0.00 | 50 | 1009.1 |
| 20260508173503 | 58 | 313 | 14.0 | 22.0 | 0.00 | 0.00 | 0.00 | 50 | 1009.1 |
| 20260508173003 | 58 | 314 | 14.0 | 25.0 | 0.00 | 0.00 | 0.00 | 50 | 1010.1 |
| 20260508172503 | 58 | 320 | 11.0 | 25.0 | 0.00 | 0.00 | 0.00 | 50 | 1010.1 |
| 20260508172004 | 58 | 322 | 15.0 | 17.0 | 0.00 | 0.00 | 0.00 | 50 | 1010.1 |
| 20260508171505 | 58 | 315 | 13.0 | 17.0 | 0.00 | 0.00 | 0.00 | 50 | 1010.1 |
| 20260508171004 | 58 | 321 | 4.0 | 14.0 | 0.00 | 0.00 | 0.00 | 50 | 1010.1 |
| 20260508170504 | 58 | 310 | 11.0 | 14.0 | 0.00 | 0.00 | 0.00 | 50 | 1010.1 |
| 20260508170004 | 58 | 297 | 7.0 | 13.0 | 0.00 | 0.00 | 0.00 | 50 | 1010.1 |
| 20260508165504 | 59 | 303 | 4.0 | 16.0 | 0.00 | 0.00 | 0.00 | 50 | 1010.1 |
| 20260508165004 | 59 | 305 | 11.0 | 16.0 | 0.00 | 0.00 | 0.00 | 50 | 1010.1 |
| 20260508164504 | 59 | 303 | 5.0 | 12.0 | 0.00 | 0.00 | 0.00 | 50 | 1010.1 |
| 20260508164004 | 59 | 301 | 8.0 | 12.0 | 0.00 | 0.00 | 0.00 | 50 | 1010.1 |
| 20260508163503 | 59 | 296 | 4.0 | 15.0 | 0.00 | 0.00 | 0.00 | 50 | 1010.1 |
| 20260508163003 | 59 | 303 | 6.0 | 18.0 | 0.00 | 0.00 | 0.00 | 50 | 1010.1 |
| 20260508162503 | 59 | 312 | 9.0 | 18.0 | 0.00 | 0.00 | 0.00 | 50 | 1010.1 |
| 20260508162003 | 60 | 317 | 10.0 | 15.0 | 0.00 | 0.00 | 0.00 | 50 | 1010.1 |
| 20260508161504 | 60 | 317 | 7.0 | 17.0 | 0.00 | 0.00 | 0.00 | 50 | 1010.1 |
| 20260508161003 | 60 | 317 | 12.0 | 17.0 | 0.00 | 0.00 | 0.00 | 50 | 1010.1 |
| 20260508160505 | 60 | 309 | 11.0 | 18.0 | 0.00 | 0.00 | 0.00 | 50 | 1010.1 |
| 20260508160004 | 60 | 305 | 15.0 | 18.0 | 0.00 | 0.00 | 0.00 | 50 | 1010.1 |
| 20260508155504 | 60 | 310 | 8.0 | 20.0 | 0.00 | 0.00 | 0.00 | 50 | 1010.1 |
| 20260508155004 | 60 | 309 | 13.0 | 20.0 | 0.00 | 0.00 | 0.00 | 50 | 1010.1 |
| 20260508154504 | 60 | 308 | 15.0 | 17.0 | 0.00 | 0.00 | 0.00 | 50 | 1010.1 |
| 20260508154004 | 60 | 320 | 14.0 | 30.0 | 0.00 | 0.00 | 0.00 | 50 | 1010.1 |
| 20260508153504 | 60 | 320 | 17.0 | 30.0 | 0.00 | 0.00 | 0.00 | 50 | 1010.1 |
| 20260508153004 | 60 | 321 | 19.0 | 30.0 | 0.00 | 0.00 | 0.00 | 50 | 1009.1 |
| 20260508152004 | 61 | 316 | 19.0 | 27.0 | 0.00 | 0.00 | 0.00 | 50 | 1009.1 |
| 20260508151504 | 61 | 307 | 17.0 | 23.0 | 0.00 | 0.00 | 0.00 | 50 | 1009.1 |
| 20260508151003 | 61 | 310 | 16.0 | 23.0 | 0.00 | 0.00 | 0.00 | 50 | 1009.1 |
| 20260508150503 | 61 | 315 | 16.0 | 26.0 | 0.00 | 0.00 | 0.00 | 50 | 1009.1 |
| 20260508145504 | 61 | 319 | 10.0 | 23.0 | 0.00 | 0.00 | 0.00 | 50 | 1009.1 |
| 20260508145004 | 61 | 312 | 10.0 | 25.0 | 0.00 | 0.00 | 0.00 | 50 | 1009.1 |
| 20260508144005 | 61 | 328 | 11.0 | 20.0 | 0.00 | 0.00 | 0.00 | 50 | 1009.1 |
| 20260508143004 | 62 | 330 | 11.0 | 18.0 | 0.00 | 0.00 | 0.00 | 50 | 1010.1 |
| 20260508142504 | 62 | 332 | 10.0 | 33.0 | 0.00 | 0.00 | 0.00 | 50 | 1010.1 |
| 20260508142004 | 62 | 334 | 17.0 | 33.0 | 0.00 | 0.00 | 0.00 | 50 | 1010.1 |
| 20260508141003 | 62 | 336 | 19.0 | 31.0 | 0.00 | 0.00 | 0.00 | 50 | 1010.1 |
| 20260508140005 | 62 | 333 | 14.0 | 27.0 | 0.00 | 0.00 | 0.00 | 50 | 1009.1 |
| 20260508135503 | 62 | 336 | 11.0 | 27.0 | 0.00 | 0.00 | 0.00 | 50 | 1009.1 |
| 20260508135004 | 63 | 339 | 18.0 | 31.0 | 0.00 | 0.00 | 0.00 | 50 | 1009.1 |
| 20260508134505 | 63 | 340 | 12.0 | 31.0 | 0.00 | 0.00 | 0.00 | 50 | 1009.1 |
| 20260508134004 | 63 | 340 | 10.0 | 26.0 | 0.00 | 0.00 | 0.00 | 50 | 1009.1 |
| 20260508133504 | 63 | 337 | 16.0 | 27.0 | 0.00 | 0.00 | 0.00 | 50 | 1009.1 |
| 20260508133004 | 63 | 335 | 14.0 | 27.0 | 0.00 | 0.00 | 0.00 | 50 | 1009.1 |
| 20260508132504 | 63 | 335 | 14.0 | 27.0 | 0.00 | 0.00 | 0.00 | 50 | 1009.1 |
| 20260508132004 | 63 | 332 | 15.0 | 20.0 | 0.00 | 0.00 | 0.00 | 50 | 1009.1 |
| 20260508131504 | 64 | 332 | 12.0 | 20.0 | 0.00 | 0.00 | 0.00 | 50 | 1008.1 |
| 20260508131004 | 64 | 332 | 13.0 | 20.0 | 0.00 | 0.00 | 0.00 | 50 | 1008.1 |
| 20260508130504 | 64 | 332 | 13.0 | 28.0 | 0.00 | 0.00 | 0.00 | 50 | 1008.1 |
| 20260508130004 | 64 | 333 | 14.0 | 28.0 | 0.00 | 0.00 | 0.00 | 50 | 1007.1 |
| 20260508125504 | 64 | 329 | 13.0 | 28.0 | 0.00 | 0.00 | 0.00 | 50 | 1007.1 |
| 20260508125004 | 64 | 321 | 19.0 | 27.0 | 0.00 | 0.00 | 0.00 | 50 | 1007.1 |
| 20260508124504 | 64 | 316 | 16.0 | 32.0 | 0.00 | 0.00 | 0.00 | 50 | 1008.1 |